﻿測定場所 (Monitoring sites),日付 (Measurement date),時間 (Measurement time),線量率 最大値 (max) μGy/h,線量率 最小値 (min) μGy/h,線量率 平均値 (average) μGy/h,
小平 (Kodaira),2018-01-28,23:01～24:00,0.0298,0.0265,0.0284,
小平 (Kodaira),2018-01-28,22:01～23:00,0.0302,0.0266,0.0284,
小平 (Kodaira),2018-01-28,21:01～22:00,0.0302,0.0262,0.0283,
小平 (Kodaira),2018-01-28,20:01～21:00,0.0299,0.0261,0.0280,
小平 (Kodaira),2018-01-28,19:01～20:00,0.0301,0.0260,0.0278,
小平 (Kodaira),2018-01-28,18:01～19:00,0.0294,0.0257,0.0277,
小平 (Kodaira),2018-01-28,17:01～18:00,0.0300,0.0256,0.0278,
小平 (Kodaira),2018-01-28,16:01～17:00,0.0300,0.0262,0.0279,
小平 (Kodaira),2018-01-28,15:01～16:00,0.0306,0.0260,0.0282,
小平 (Kodaira),2018-01-28,14:01～15:00,0.0301,0.0260,0.0279,
小平 (Kodaira),2018-01-28,13:01～14:00,0.0303,0.0253,0.0276,
小平 (Kodaira),2018-01-28,12:01～13:00,0.0297,0.0256,0.0277,
小平 (Kodaira),2018-01-28,11:01～12:00,0.0291,0.0259,0.0277,
小平 (Kodaira),2018-01-28,10:01～11:00,0.0300,0.0258,0.0279,
小平 (Kodaira),2018-01-28,09:01～10:00,0.0307,0.0269,0.0289,
小平 (Kodaira),2018-01-28,08:01～09:00,0.0319,0.0277,0.0299,
小平 (Kodaira),2018-01-28,07:01～08:00,0.0317,0.0285,0.0300,
小平 (Kodaira),2018-01-28,06:01～07:00,0.0316,0.0276,0.0297,
小平 (Kodaira),2018-01-28,05:01～06:00,0.0321,0.0283,0.0298,
小平 (Kodaira),2018-01-28,04:01～05:00,0.0315,0.0272,0.0291,
小平 (Kodaira),2018-01-28,03:01～04:00,0.0307,0.0268,0.0288,
小平 (Kodaira),2018-01-28,02:01～03:00,0.0302,0.0260,0.0281,
小平 (Kodaira),2018-01-28,01:01～02:00,0.0295,0.0257,0.0275,
小平 (Kodaira),2018-01-28,00:01～01:00,0.0300,0.0251,0.0276,
小平 (Kodaira),2018-01-27,23:01～24:00,0.0295,0.0259,0.0276,
小平 (Kodaira),2018-01-27,22:01～23:00,0.0301,0.0262,0.0278,
小平 (Kodaira),2018-01-27,21:01～22:00,0.0294,0.0258,0.0276,
小平 (Kodaira),2018-01-27,20:01～21:00,0.0292,0.0263,0.0275,
小平 (Kodaira),2018-01-27,19:01～20:00,0.0297,0.0256,0.0274,
小平 (Kodaira),2018-01-27,18:01～19:00,0.0297,0.0251,0.0272,
小平 (Kodaira),2018-01-27,17:01～18:00,0.0292,0.0252,0.0275,
小平 (Kodaira),2018-01-27,16:01～17:00,0.0288,0.0256,0.0274,
小平 (Kodaira),2018-01-27,15:01～16:00,0.0295,0.0254,0.0275,
小平 (Kodaira),2018-01-27,14:01～15:00,0.0296,0.0256,0.0277,
小平 (Kodaira),2018-01-27,13:01～14:00,0.0300,0.0259,0.0276,
小平 (Kodaira),2018-01-27,12:01～13:00,0.0296,0.0253,0.0275,
小平 (Kodaira),2018-01-27,11:01～12:00,0.0292,0.0253,0.0274,
小平 (Kodaira),2018-01-27,10:01～11:00,0.0289,0.0253,0.0271,
小平 (Kodaira),2018-01-27,09:01～10:00,0.0293,0.0251,0.0275,
小平 (Kodaira),2018-01-27,08:01～09:00,0.0307,0.0262,0.0286,
小平 (Kodaira),2018-01-27,07:01～08:00,0.0301,0.0265,0.0286,
小平 (Kodaira),2018-01-27,06:01～07:00,0.0303,0.0257,0.0285,
小平 (Kodaira),2018-01-27,05:01～06:00,0.0305,0.0267,0.0286,
小平 (Kodaira),2018-01-27,04:01～05:00,0.0310,0.0261,0.0284,
小平 (Kodaira),2018-01-27,03:01～04:00,0.0312,0.0264,0.0280,
小平 (Kodaira),2018-01-27,02:01～03:00,0.0299,0.0252,0.0277,
小平 (Kodaira),2018-01-27,01:01～02:00,0.0294,0.0252,0.0272,
小平 (Kodaira),2018-01-27,00:01～01:00,0.0295,0.0246,0.0274,
小平 (Kodaira),2018-01-26,23:01～24:00,0.0303,0.0253,0.0273,
小平 (Kodaira),2018-01-26,22:01～23:00,0.0289,0.0252,0.0272,
小平 (Kodaira),2018-01-26,21:01～22:00,0.0295,0.0249,0.0271,
小平 (Kodaira),2018-01-26,20:01～21:00,0.0285,0.0254,0.0269,
小平 (Kodaira),2018-01-26,19:01～20:00,0.0290,0.0255,0.0272,
小平 (Kodaira),2018-01-26,18:01～19:00,0.0293,0.0256,0.0269,
小平 (Kodaira),2018-01-26,17:01～18:00,0.0287,0.0246,0.0269,
小平 (Kodaira),2018-01-26,16:01～17:00,0.0284,0.0241,0.0267,
小平 (Kodaira),2018-01-26,15:01～16:00,0.0295,0.0257,0.0271,
小平 (Kodaira),2018-01-26,14:01～15:00,0.0285,0.0250,0.0271,
小平 (Kodaira),2018-01-26,13:01～14:00,0.0294,0.0240,0.0270,
小平 (Kodaira),2018-01-26,12:01～13:00,0.0283,0.0254,0.0269,
小平 (Kodaira),2018-01-26,11:01～12:00,0.0297,0.0253,0.0274,
小平 (Kodaira),2018-01-26,10:01～11:00,0.0292,0.0257,0.0275,
小平 (Kodaira),2018-01-26,09:01～10:00,0.0307,0.0259,0.0282,
小平 (Kodaira),2018-01-26,08:01～09:00,0.0312,0.0270,0.0289,
小平 (Kodaira),2018-01-26,07:01～08:00,0.0315,0.0272,0.0289,
小平 (Kodaira),2018-01-26,06:01～07:00,0.0307,0.0275,0.0290,
小平 (Kodaira),2018-01-26,05:01～06:00,0.0311,0.0275,0.0293,
小平 (Kodaira),2018-01-26,04:01～05:00,0.0311,0.0270,0.0291,
小平 (Kodaira),2018-01-26,03:01～04:00,0.0314,0.0264,0.0289,
小平 (Kodaira),2018-01-26,02:01～03:00,0.0309,0.0270,0.0294,
小平 (Kodaira),2018-01-26,01:01～02:00,0.0313,0.0267,0.0289,
小平 (Kodaira),2018-01-26,00:01～01:00,0.0303,0.0256,0.0283,
小平 (Kodaira),2018-01-25,23:01～24:00,0.0304,0.0256,0.0278,
小平 (Kodaira),2018-01-25,22:01～23:00,0.0295,0.0250,0.0273,
小平 (Kodaira),2018-01-25,21:01～22:00,0.0293,0.0256,0.0273,
小平 (Kodaira),2018-01-25,20:01～21:00,0.0290,0.0252,0.0271,
小平 (Kodaira),2018-01-25,19:01～20:00,0.0284,0.0252,0.0267,
小平 (Kodaira),2018-01-25,18:01～19:00,0.0289,0.0251,0.0266,
小平 (Kodaira),2018-01-25,17:01～18:00,0.0282,0.0241,0.0264,
小平 (Kodaira),2018-01-25,16:01～17:00,0.0288,0.0245,0.0267,
小平 (Kodaira),2018-01-25,15:01～16:00,0.0293,0.0245,0.0267,
小平 (Kodaira),2018-01-25,14:01～15:00,0.0294,0.0255,0.0270,
小平 (Kodaira),2018-01-25,13:01～14:00,0.0298,0.0253,0.0271,
小平 (Kodaira),2018-01-25,12:01～13:00,0.0292,0.0256,0.0270,
小平 (Kodaira),2018-01-25,11:01～12:00,0.0291,0.0254,0.0271,
小平 (Kodaira),2018-01-25,10:01～11:00,0.0288,0.0247,0.0266,
小平 (Kodaira),2018-01-25,09:01～10:00,0.0290,0.0257,0.0273,
小平 (Kodaira),2018-01-25,08:01～09:00,0.0290,0.0258,0.0277,
小平 (Kodaira),2018-01-25,07:01～08:00,0.0298,0.0260,0.0275,
小平 (Kodaira),2018-01-25,06:01～07:00,0.0289,0.0253,0.0273,
小平 (Kodaira),2018-01-25,05:01～06:00,0.0289,0.0250,0.0267,
小平 (Kodaira),2018-01-25,04:01～05:00,0.0297,0.0244,0.0269,
小平 (Kodaira),2018-01-25,03:01～04:00,0.0289,0.0256,0.0271,
小平 (Kodaira),2018-01-25,02:01～03:00,0.0288,0.0250,0.0270,
小平 (Kodaira),2018-01-25,01:01～02:00,0.0290,0.0250,0.0270,
小平 (Kodaira),2018-01-25,00:01～01:00,0.0290,0.0248,0.0271,
小平 (Kodaira),2018-01-24,23:01～24:00,0.0293,0.0242,0.0267,
小平 (Kodaira),2018-01-24,22:01～23:00,0.0291,0.0247,0.0268,
小平 (Kodaira),2018-01-24,21:01～22:00,0.0289,0.0251,0.0267,
小平 (Kodaira),2018-01-24,20:01～21:00,0.0281,0.0247,0.0265,
小平 (Kodaira),2018-01-24,19:01～20:00,0.0281,0.0246,0.0264,
小平 (Kodaira),2018-01-24,18:01～19:00,0.0289,0.0240,0.0261,
小平 (Kodaira),2018-01-24,17:01～18:00,0.0276,0.0237,0.0258,
小平 (Kodaira),2018-01-24,16:01～17:00,0.0279,0.0240,0.0259,
小平 (Kodaira),2018-01-24,15:01～16:00,0.0280,0.0242,0.0260,
小平 (Kodaira),2018-01-24,14:01～15:00,0.0280,0.0240,0.0259,
小平 (Kodaira),2018-01-24,13:01～14:00,0.0275,0.0234,0.0256,
小平 (Kodaira),2018-01-24,12:01～13:00,0.0280,0.0242,0.0257,
小平 (Kodaira),2018-01-24,11:01～12:00,0.0289,0.0235,0.0258,
小平 (Kodaira),2018-01-24,10:01～11:00,0.0275,0.0230,0.0255,
小平 (Kodaira),2018-01-24,09:01～10:00,0.0269,0.0233,0.0252,
小平 (Kodaira),2018-01-24,08:01～09:00,0.0271,0.0237,0.0253,
小平 (Kodaira),2018-01-24,07:01～08:00,0.0275,0.0239,0.0256,
小平 (Kodaira),2018-01-24,06:01～07:00,0.0276,0.0236,0.0255,
小平 (Kodaira),2018-01-24,05:01～06:00,0.0274,0.0234,0.0258,
小平 (Kodaira),2018-01-24,04:01～05:00,0.0279,0.0240,0.0259,
小平 (Kodaira),2018-01-24,03:01～04:00,0.0280,0.0240,0.0258,
小平 (Kodaira),2018-01-24,02:01～03:00,0.0275,0.0237,0.0258,
小平 (Kodaira),2018-01-24,01:01～02:00,0.0272,0.0236,0.0257,
小平 (Kodaira),2018-01-24,00:01～01:00,0.0277,0.0239,0.0256,
小平 (Kodaira),2018-01-23,23:01～24:00,0.0278,0.0247,0.0261,
小平 (Kodaira),2018-01-23,22:01～23:00,0.0278,0.0235,0.0257,
小平 (Kodaira),2018-01-23,21:01～22:00,0.0269,0.0227,0.0252,
小平 (Kodaira),2018-01-23,20:01～21:00,0.0267,0.0232,0.0250,
小平 (Kodaira),2018-01-23,19:01～20:00,0.0274,0.0234,0.0255,
小平 (Kodaira),2018-01-23,18:01～19:00,0.0269,0.0237,0.0255,
小平 (Kodaira),2018-01-23,17:01～18:00,0.0270,0.0239,0.0253,
小平 (Kodaira),2018-01-23,16:01～17:00,0.0275,0.0248,0.0260,
小平 (Kodaira),2018-01-23,15:01～16:00,0.0272,0.0246,0.0257,
小平 (Kodaira),2018-01-23,14:01～15:00,0.0270,0.0230,0.0251,
小平 (Kodaira),2018-01-23,13:01～14:00,0.0280,0.0230,0.0251,
小平 (Kodaira),2018-01-23,12:01～13:00,0.0273,0.0232,0.0254,
小平 (Kodaira),2018-01-23,11:01～12:00,0.0271,0.0238,0.0251,
小平 (Kodaira),2018-01-23,10:01～11:00,0.0258,0.0221,0.0238,
小平 (Kodaira),2018-01-23,09:01～10:00,0.0252,0.0219,0.0236,
小平 (Kodaira),2018-01-23,08:01～09:00,0.0255,0.0216,0.0235,
小平 (Kodaira),2018-01-23,07:01～08:00,0.0251,0.0216,0.0234,
小平 (Kodaira),2018-01-23,06:01～07:00,0.0251,0.0224,0.0237,
小平 (Kodaira),2018-01-23,05:01～06:00,0.0252,0.0211,0.0232,
小平 (Kodaira),2018-01-23,04:01～05:00,0.0244,0.0215,0.0231,
小平 (Kodaira),2018-01-23,03:01～04:00,0.0247,0.0220,0.0233,
小平 (Kodaira),2018-01-23,02:01～03:00,0.0252,0.0211,0.0234,
小平 (Kodaira),2018-01-23,01:01～02:00,0.0249,0.0215,0.0234,
小平 (Kodaira),2018-01-23,00:01～01:00,0.0287,0.0227,0.0256,
小平 (Kodaira),2018-01-22,23:01～24:00,0.0322,0.0262,0.0297,
小平 (Kodaira),2018-01-22,22:01～23:00,0.0447,0.0293,0.0353,
小平 (Kodaira),2018-01-22,21:01～22:00,0.0542,0.0406,0.0471,
小平 (Kodaira),2018-01-22,20:01～21:00,0.0560,0.0477,0.0516,
小平 (Kodaira),2018-01-22,19:01～20:00,0.0505,0.0409,0.0460,
小平 (Kodaira),2018-01-22,18:01～19:00,0.0504,0.0418,0.0472,
小平 (Kodaira),2018-01-22,17:01～18:00,0.0531,0.0456,0.0494,
小平 (Kodaira),2018-01-22,16:01～17:00,0.0545,0.0480,0.0509,
小平 (Kodaira),2018-01-22,15:01～16:00,0.0562,0.0467,0.0501,
小平 (Kodaira),2018-01-22,14:01～15:00,0.0532,0.0442,0.0481,
小平 (Kodaira),2018-01-22,13:01～14:00,0.0541,0.0454,0.0493,
小平 (Kodaira),2018-01-22,12:01～13:00,0.0474,0.0329,0.0389,
小平 (Kodaira),2018-01-22,11:01～12:00,0.0366,0.0311,0.0337,
小平 (Kodaira),2018-01-22,10:01～11:00,0.0361,0.0333,0.0347,
小平 (Kodaira),2018-01-22,09:01～10:00,0.0358,0.0309,0.0333,
小平 (Kodaira),2018-01-22,08:01～09:00,0.0328,0.0293,0.0308,
小平 (Kodaira),2018-01-22,07:01～08:00,0.0325,0.0290,0.0306,
小平 (Kodaira),2018-01-22,06:01～07:00,0.0321,0.0285,0.0305,
小平 (Kodaira),2018-01-22,05:01～06:00,0.0320,0.0287,0.0302,
小平 (Kodaira),2018-01-22,04:01～05:00,0.0324,0.0285,0.0303,
小平 (Kodaira),2018-01-22,03:01～04:00,0.0327,0.0276,0.0301,
小平 (Kodaira),2018-01-22,02:01～03:00,0.0314,0.0283,0.0299,
小平 (Kodaira),2018-01-22,01:01～02:00,0.0321,0.0282,0.0302,
小平 (Kodaira),2018-01-22,00:01～01:00,0.0319,0.0280,0.0301,
